Location: Bonac
(42.8765°N, 0.9753°E)
Time: 08:54:17
(UTC+00:00)

SJ-7 - Pass Details

Date: 12 January 2026
Orbit: 495 x 520 km, 97.7° (Epoch: 18 February)

Event Time Altitude Azimuth Distance (km) Brightness Sun altitude
Rises 18:19:42 0° 161° (SSE) 2,638 7.7 -17.2°
Reaches altitude 10° 18:21:48 10° 159° (SSE) 1,755 6.8 -17.5°
Maximum altitude 18:25:34 72° 76° (ENE) 555 4.1 -18.2°
Drops below altitude 10° 18:29:22 10° 352° (N) 1,767 6.9 -18.9°
Sets 18:31:29 0° 350° (N) 2,658 7.8 -19.3°
